This is the latest recevied weather packets stored in our database for station/object KE5VT. If no packets are shown the sender has not sent any weather packets the latest 10 day(s).
| Time | Temp. | Humidity | Pressure | Rain* | Wind** | Luminosity | Snow |
|---|---|---|---|---|---|---|---|
| 1787611283 | 31.11° C | 42% | 1011.4 hPa | 0 mm | - | 108 W/m² | - |
| 1787610978 | 31.11° C | 41% | 1011.5 hPa | 0 mm | - | 121 W/m² | - |
| 1787610675 | 31.11° C | 41% | 1011.4 hPa | 0 mm | - | 135 W/m² | - |
| 1787610369 | 32.78° C | 40% | 1011.2 hPa | 0 mm | - | 146 W/m² | - |
| 1787610068 | 32.22° C | 39% | 1011.1 hPa | 0 mm | - | 162 W/m² | - |
| 1787609762 | 32.22° C | 38% | 1011.2 hPa | 0 mm | - | 177 W/m² | - |
| 1787609457 | 32.78° C | 39% | 1011.2 hPa | 0 mm | - | 190 W/m² | - |
| 1787609157 | 32.22° C | 38% | 1011 hPa | 0 mm | - | 206 W/m² | - |
| 1787608852 | 31.67° C | 40% | 1011.1 hPa | 0 mm | - | 220 W/m² | - |
| 1787608551 | 31.67° C | 41% | 1011.2 hPa | 0 mm | - | 236 W/m² | - |
| 1787608247 | 31.67° C | 41% | 1011.1 hPa | 0 mm | - | 248 W/m² | - |
| 1787607944 | 32.78° C | 40% | 1011.1 hPa | 0 mm | - | 263 W/m² | - |
| 1787607640 | 32.22° C | 39% | 1011 hPa | 0 mm | - | 279 W/m² | - |
| 1787607337 | 31.67° C | 41% | 1011.2 hPa | 0 mm | - | 294 W/m² | - |
| 1787607033 | 31.67° C | 41% | 1011.2 hPa | 0 mm | - | 307 W/m² | - |
| 1787606732 | 31.67° C | 43% | 1011.1 hPa | 0 mm | - | 323 W/m² | - |
| 1787606426 | 32.22° C | 42% | 1011.1 hPa | 0 mm | - | 337 W/m² | - |
| 1787606126 | 32.22° C | 41% | 1011 hPa | 0 mm | - | 348 W/m² | - |
| 1787605821 | 31.67° C | 42% | 1011.1 hPa | 0 mm | - | 354 W/m² | - |
| 1787605520 | 32.78° C | 42% | 1011.1 hPa | 0 mm | - | 168 W/m² | - |
| 1787605216 | 31.67° C | 42% | 1010.9 hPa | 0 mm | - | 86 W/m² | - |
| 1787604915 | 32.22° C | 44% | 1011 hPa | 0 mm | - | 407 W/m² | - |
| 1787604610 | 31.67° C | 46% | 1011.2 hPa | 0 mm | - | 404 W/m² | - |
| 1787604310 | 31.67° C | 43% | 1011.1 hPa | 0 mm | - | 416 W/m² | - |
| 1787604005 | 31.67° C | 43% | 1011.1 hPa | 0 mm | - | 430 W/m² | - |
* Rain latest hour (hover to see other rain measurements)
** Current wind speed in m/s (hover to see current wind gust speed)